Wetterdaten: Dienstag, 06.01.2009
Datum Zeit Temp. a Sch. Temp. a Son. Temp. a Bod. Feuchte a. Luftdruck Regen Wind Richtung Richtung Sonnenschein Helligkeit Taupunkt Windchill
06.01.2009 00:03 -7,9 C -7,6 C -6,9 C 72 % 1022 hPa 0,0 l/m 2,7 m/s (2 Bft) O 95 0 min 0 lux -12,0 C -12,0 C
06.01.2009 00:07 -8,0 C -7,8 C -7,0 C 71 % 1022 hPa 0,0 l/m 1,8 m/s (2 Bft) O-NO22.5 70 0 min 0 lux -12,3 C -8,0 C
06.01.2009 00:12 -8,1 C -7,9 C -7,0 C 70 % 1022 hPa 0,0 l/m 2,4 m/s (2 Bft) O22.5 100 0 min 0 lux -12,6 C -11,0 C
06.01.2009 00:18 -8,1 C -7,9 C -7,1 C 68 % 1022 hPa 0,0 l/m 0,8 m/s (1 Bft) O22.5 85 0 min 0 lux -12,9 C -8,1 C
06.01.2009 00:23 -8,0 C -7,9 C -7,1 C 68 % 1022 hPa 0,0 l/m 3,7 m/s (3 Bft) O-NO45 75 0 min 0 lux -12,8 C -15,3 C
06.01.2009 00:27 -8,1 C -7,9 C -7,2 C 68 % 1022 hPa 0,0 l/m 3,8 m/s (3 Bft) NO67.5 45 0 min 0 lux -12,9 C -15,6 C
06.01.2009 00:32 -8,2 C -8,0 C -7,3 C 68 % 1022 hPa 0,0 l/m 0,6 m/s (1 Bft) SO22.5 125 0 min 0 lux -13,0 C -8,2 C
06.01.2009 00:37 -8,4 C -8,0 C -7,3 C 68 % 1022 hPa 0,0 l/m 0,9 m/s (1 Bft) S-SO 165 0 min 0 lux -13,2 C -8,4 C
06.01.2009 00:42 -8,5 C -8,1 C -7,3 C 68 % 1022 hPa 0,0 l/m 1,3 m/s (1 Bft) S-SO22.5 150 0 min 0 lux -13,3 C -8,5 C
06.01.2009 00:47 -8,5 C -8,1 C -7,4 C 68 % 1022 hPa 0,0 l/m 0,5 m/s (1 Bft) O-NO22.5 75 0 min 0 lux -13,3 C -8,5 C
06.01.2009 00:52 -8,6 C -8,1 C -7,5 C 67 % 1022 hPa 0,0 l/m 0,9 m/s (1 Bft) O-NO45 60 0 min 0 lux -13,6 C -8,6 C
06.01.2009 00:57 -8,7 C -8,2 C -7,4 C 66 % 1022 hPa 0,0 l/m 2,5 m/s (2 Bft) SO22.5 125 0 min 0 lux -13,9 C -12,0 C
06.01.2009 01:02 -8,7 C -8,3 C -7,5 C 64 % 1022 hPa 0,0 l/m 1,9 m/s (2 Bft) O-SO22.5 115 0 min 0 lux -14,2 C -9,2 C
06.01.2009 01:07 -8,6 C -8,3 C -7,5 C 65 % 1022 hPa 0,0 l/m 2,2 m/s (2 Bft) O-SO22.5 120 0 min 0 lux -14,0 C -10,7 C
06.01.2009 01:13 -8,5 C -8,3 C -7,5 C 61 % 1022 hPa 0,0 l/m 3,5 m/s (3 Bft) O-SO22.5 110 0 min 0 lux -14,6 C -15,2 C
06.01.2009 01:18 -8,5 C -8,4 C -7,6 C 62 % 1022 hPa 0,0 l/m 2,3 m/s (2 Bft) O-SO45 120 0 min 0 lux -14,4 C -10,9 C
06.01.2009 01:23 -8,5 C -8,4 C -7,6 C 61 % 1022 hPa 0,0 l/m 2,9 m/s (2 Bft) O-SO22.5 105 0 min 0 lux -14,6 C -13,1 C
06.01.2009 01:28 -8,5 C -8,4 C -7,6 C 61 % 1022 hPa 0,0 l/m 2,6 m/s (2 Bft) O-SO22.5 110 0 min 0 lux -14,6 C -12,3 C
06.01.2009 01:33 -8,6 C -8,5 C -7,7 C 60 % 1022 hPa 0,0 l/m 3,3 m/s (2 Bft) O-SO45 105 0 min 0 lux -14,9 C -14,6 C
06.01.2009 01:38 -8,6 C -8,5 C -7,7 C 58 % 1022 hPa 0,0 l/m 3,0 m/s (2 Bft) O45 80 0 min 0 lux -15,3 C -13,8 C
06.01.2009 01:43 -8,7 C -8,6 C -7,9 C 58 % 1022 hPa 0,0 l/m 4,2 m/s (3 Bft) O-NO67.5 75 0 min 0 lux -15,4 C -17,7 C
06.01.2009 01:48 -8,7 C -8,6 C -7,9 C 58 % 1022 hPa 0,0 l/m 4,0 m/s (3 Bft) O-NO45 60 0 min 0 lux -15,4 C -17,1 C
06.01.2009 01:53 -8,7 C -8,7 C -7,9 C 58 % 1022 hPa 0,0 l/m 2,7 m/s (2 Bft) O-NO45 70 0 min 0 lux -15,4 C -12,8 C
06.01.2009 01:58 -8,8 C -8,7 C -7,9 C 59 % 1022 hPa 0,0 l/m 3,6 m/s (3 Bft) NO45 55 0 min 0 lux -15,3 C -16,1 C
06.01.2009 02:03 -8,7 C -8,7 C -7,9 C 58 % 1022 hPa 0,0 l/m 4,6 m/s (3 Bft) O-NO45 75 0 min 0 lux -15,4 C -18,5 C
06.01.2009 02:08 -8,7 C -8,7 C -8,0 C 57 % 1022 hPa 0,0 l/m 4,7 m/s (3 Bft) O45 80 0 min 0 lux -15,6 C -18,9 C
06.01.2009 02:13 -8,7 C -8,7 C -8,0 C 58 % 1023 hPa 0,0 l/m 5,6 m/s (4 Bft) O-NO67.5 60 0 min 0 lux -15,4 C -21,0 C
06.01.2009 02:18 -8,7 C -8,7 C -8,0 C 57 % 1023 hPa 0,0 l/m 3,3 m/s (2 Bft) O-NO22.5 60 0 min 0 lux -15,6 C -14,9 C
06.01.2009 02:23 -8,7 C -8,7 C -8,0 C 57 % 1023 hPa 0,0 l/m 3,3 m/s (2 Bft) O-NO22.5 60 0 min 0 lux -15,6 C -14,9 C
06.01.2009 02:28 -8,8 C -8,7 C -8,0 C 57 % 1023 hPa 0,0 l/m 3,4 m/s (2 Bft) O-NO22.5 65 0 min 0 lux -15,7 C -15,2 C
06.01.2009 02:33 -8,8 C -8,7 C -8,1 C 58 % 1023 hPa 0,0 l/m 3,3 m/s (2 Bft) NO45 45 0 min 0 lux -15,5 C -15,1 C
06.01.2009 02:37 -8,8 C -8,7 C -8,0 C 57 % 1023 hPa 0,0 l/m 4,8 m/s (3 Bft) NO45 55 0 min 0 lux -15,7 C -19,3 C
06.01.2009 02:42 -8,9 C -8,7 C -8,0 C 57 % 1023 hPa 0,0 l/m 3,3 m/s (2 Bft) O22.5 85 0 min 0 lux -15,8 C -15,1 C
06.01.2009 02:47 -9,1 C -8,7 C -8,1 C 58 % 1023 hPa 0,0 l/m 3,3 m/s (2 Bft) O22.5 85 0 min 0 lux -15,8 C -15,3 C
06.01.2009 02:52 -9,1 C -8,8 C -8,2 C 59 % 1023 hPa 0,0 l/m 2,4 m/s (2 Bft) O-NO67.5 70 0 min 0 lux -15,6 C -11,9 C
06.01.2009 02:57 -9,3 C -8,9 C -8,2 C 60 % 1023 hPa 0,0 l/m 1,9 m/s (2 Bft) O22.5 90 0 min 0 lux -15,6 C -9,7 C
06.01.2009 03:02 -9,3 C -8,9 C -8,3 C 58 % 1023 hPa 0,0 l/m 2,1 m/s (2 Bft) O22.5 95 0 min 0 lux -16,0 C -10,9 C
06.01.2009 03:07 -9,3 C -9,0 C -8,3 C 56 % 1023 hPa 0,0 l/m 2,2 m/s (2 Bft) O-SO22.5 110 0 min 0 lux -16,4 C -11,2 C
06.01.2009 03:12 -9,3 C -9,1 C -8,4 C 58 % 1023 hPa 0,0 l/m 2,3 m/s (2 Bft) O-SO22.5 105 0 min 0 lux -16,0 C -11,9 C
06.01.2009 03:17 -9,4 C -9,2 C -8,4 C 57 % 1023 hPa 0,0 l/m 2,3 m/s (2 Bft) O 85 0 min 0 lux -16,3 C -12,0 C
06.01.2009 03:22 -9,5 C -9,2 C -8,5 C 57 % 1022 hPa 0,0 l/m 2,1 m/s (2 Bft) O22.5 90 0 min 0 lux -16,4 C -11,1 C
06.01.2009 03:27 -9,5 C -9,3 C -8,5 C 57 % 1022 hPa 0,0 l/m 0,9 m/s (1 Bft) NO45 35 0 min 0 lux -16,4 C -9,5 C
06.01.2009 03:32 -9,5 C -9,5 C -8,5 C 57 % 1022 hPa 0,0 l/m 2,5 m/s (2 Bft) N-NO45 30 0 min 0 lux -16,4 C -12,8 C
06.01.2009 03:37 -9,5 C -9,5 C -8,6 C 57 % 1023 hPa 0,0 l/m 2,8 m/s (2 Bft) N-NO45 15 0 min 0 lux -16,4 C -14,1 C
06.01.2009 03:42 -9,4 C -9,5 C -8,7 C 56 % 1023 hPa 0,0 l/m 2,2 m/s (2 Bft) N-NO22.5 25 0 min 0 lux -16,5 C -11,4 C
06.01.2009 03:47 -9,3 C -9,5 C -8,7 C 54 % 1022 hPa 0,0 l/m 3,8 m/s (3 Bft) N-NO45 25 0 min 0 lux -16,8 C -17,0 C
06.01.2009 03:52 -9,3 C -9,5 C -8,7 C 54 % 1023 hPa 0,0 l/m 2,6 m/s (2 Bft) N-NO67.5 30 0 min 0 lux -16,8 C -13,0 C
06.01.2009 03:57 -9,3 C -9,5 C -8,7 C 54 % 1023 hPa 0,0 l/m 3,0 m/s (2 Bft) O45 80 0 min 0 lux -16,8 C -14,5 C
06.01.2009 04:02 -9,4 C -9,5 C -8,7 C 54 % 1023 hPa 0,0 l/m 2,5 m/s (2 Bft) NO22.5 50 0 min 0 lux -16,9 C -12,6 C
06.01.2009 04:07 -9,4 C -9,5 C -8,8 C 55 % 1023 hPa 0,0 l/m 2,3 m/s (2 Bft) N-NO45 30 0 min 0 lux -16,7 C -11,8 C
06.01.2009 04:12 -9,5 C -9,5 C -8,8 C 54 % 1022 hPa 0,0 l/m 2,0 m/s (2 Bft) NO45 55 0 min 0 lux -17,0 C -10,4 C
06.01.2009 04:17 -9,5 C -9,5 C -8,8 C 54 % 1022 hPa 0,0 l/m 2,8 m/s (2 Bft) O-NO45 70 0 min 0 lux -17,0 C -13,9 C
06.01.2009 04:22 -9,4 C -9,5 C -8,8 C 54 % 1022 hPa 0,0 l/m 3,5 m/s (3 Bft) O-SO45 105 0 min 0 lux -16,9 C -16,4 C
06.01.2009 04:27 -9,2 C -9,5 C -8,7 C 53 % 1022 hPa 0,0 l/m 4,0 m/s (3 Bft) O45 100 0 min 0 lux -17,0 C -17,7 C
06.01.2009 04:32 -9,3 C -9,5 C -8,7 C 53 % 1022 hPa 0,0 l/m 4,0 m/s (3 Bft) O-SO45 110 0 min 0 lux -17,1 C -17,9 C
06.01.2009 04:37 -9,3 C -9,5 C -8,7 C 54 % 1022 hPa 0,0 l/m 3,1 m/s (2 Bft) O-SO45 115 0 min 0 lux -16,8 C -15,0 C
06.01.2009 04:42 -9,3 C -9,5 C -8,7 C 53 % 1022 hPa 0,0 l/m 4,3 m/s (3 Bft) O-SO45 105 0 min 0 lux -17,1 C -18,5 C
06.01.2009 04:47 -9,3 C -9,5 C -8,7 C 54 % 1022 hPa 0,0 l/m 3,4 m/s (2 Bft) O-SO45 120 0 min 0 lux -16,8 C -15,9 C
06.01.2009 04:52 -9,4 C -9,5 C -8,8 C 53 % 1022 hPa 0,0 l/m 3,4 m/s (2 Bft) O45 100 0 min 0 lux -17,2 C -16,0 C
06.01.2009 04:57 -9,3 C -9,5 C -8,8 C 53 % 1022 hPa 0,0 l/m 5,1 m/s (3 Bft) O-SO22.5 105 0 min 0 lux -17,1 C -20,7 C
06.01.2009 05:02 -9,3 C -9,5 C -8,8 C 53 % 1022 hPa 0,0 l/m 7,0 m/s (4 Bft) O22.5 95 0 min 0 lux -17,1 C -24,4 C
06.01.2009 05:07 -9,1 C -9,4 C -8,8 C 52 % 1022 hPa 0,0 l/m 7,9 m/s (4 Bft) O-SO22.5 105 0 min 0 lux -17,1 C -25,5 C
06.01.2009 05:12 -9,3 C -9,4 C -8,9 C 53 % 1022 hPa 0,0 l/m 5,0 m/s (3 Bft) O-SO22.5 105 0 min 0 lux -17,1 C -20,5 C
06.01.2009 05:17 -9,2 C -9,4 C -8,9 C 52 % 1022 hPa 0,0 l/m 6,8 m/s (4 Bft) O-SO22.5 105 0 min 0 lux -17,2 C -23,9 C
06.01.2009 05:22 -9,3 C -9,4 C -8,9 C 53 % 1022 hPa 0,0 l/m 4,9 m/s (3 Bft) O-SO22.5 105 0 min 0 lux -17,1 C -20,1 C
06.01.2009 05:27 -9,4 C -9,5 C -8,9 C 52 % 1022 hPa 0,0 l/m 4,3 m/s (3 Bft) O45 95 0 min 0 lux -17,4 C -18,8 C
06.01.2009 05:32 -9,3 C -9,5 C -8,9 C 52 % 1022 hPa 0,0 l/m 6,9 m/s (4 Bft) O45 80 0 min 0 lux -17,3 C -24,3 C
06.01.2009 05:37 -9,3 C -9,5 C -9,0 C 53 % 1022 hPa 0,0 l/m 7,1 m/s (4 Bft) O-NO45 75 0 min 0 lux -17,1 C -24,6 C
06.01.2009 05:42 -9,3 C -9,4 C -9,0 C 52 % 1022 hPa 0,0 l/m 5,7 m/s (4 Bft) O45 100 0 min 0 lux -17,3 C -21,9 C
06.01.2009 05:47 -9,4 C -9,5 C -9,0 C 53 % 1022 hPa 0,0 l/m 4,3 m/s (3 Bft) O-NO45 65 0 min 0 lux -17,2 C -18,6 C
06.01.2009 05:52 -9,5 C -9,5 C -9,0 C 53 % 1022 hPa 0,0 l/m 4,3 m/s (3 Bft) O-NO45 65 0 min 0 lux -17,3 C -18,7 C
06.01.2009 05:57 -9,5 C -9,5 C -9,1 C 54 % 1022 hPa 0,0 l/m 5,1 m/s (3 Bft) O22.5 85 0 min 0 lux -17,0 C -20,8 C
06.01.2009 06:02 -9,6 C -9,6 C -9,1 C 54 % 1022 hPa 0,0 l/m 4,1 m/s (3 Bft) O45 85 0 min 0 lux -17,1 C -18,5 C
06.01.2009 06:07 -9,6 C -9,5 C -9,1 C 53 % 1022 hPa 0,0 l/m 4,9 m/s (3 Bft) O-NO67.5 70 0 min 0 lux -17,4 C -20,6 C
06.01.2009 06:12 -9,5 C -9,6 C -9,1 C 54 % 1022 hPa 0,0 l/m 3,9 m/s (3 Bft) O-NO45 70 0 min 0 lux -17,0 C -17,9 C
06.01.2009 06:17 -9,6 C -9,6 C -9,1 C 54 % 1023 hPa 0,0 l/m 4,9 m/s (3 Bft) O-NO22.5 65 0 min 0 lux -17,1 C -20,4 C
06.01.2009 06:22 -9,6 C -9,6 C -9,1 C 54 % 1023 hPa 0,0 l/m 3,2 m/s (2 Bft) O-NO45 60 0 min 0 lux -17,1 C -15,7 C
06.01.2009 06:27 -9,6 C -9,6 C -9,2 C 54 % 1023 hPa 0,0 l/m 3,7 m/s (3 Bft) NO22.5 45 0 min 0 lux -17,1 C -17,1 C
06.01.2009 06:32 -9,5 C -9,6 C -9,2 C 53 % 1022 hPa 0,0 l/m 6,8 m/s (4 Bft) O-NO67.5 70 0 min 0 lux -17,3 C -24,3 C
06.01.2009 06:37 -9,5 C -9,6 C -9,2 C 54 % 1022 hPa 0,0 l/m 4,7 m/s (3 Bft) O-NO67.5 60 0 min 0 lux -17,0 C -19,8 C
06.01.2009 06:42 -9,5 C -9,6 C -9,2 C 54 % 1022 hPa 0,0 l/m 4,1 m/s (3 Bft) O-NO45 60 0 min 0 lux -17,0 C -18,2 C
06.01.2009 06:47 -9,5 C -9,6 C -9,2 C 53 % 1022 hPa 0,0 l/m 5,4 m/s (3 Bft) O22.5 90 0 min 0 lux -17,3 C -21,5 C
06.01.2009 06:52 -9,4 C -9,5 C -9,1 C 53 % 1022 hPa 0,0 l/m 5,2 m/s (3 Bft) O45 90 0 min 0 lux -17,2 C -20,9 C
06.01.2009 06:57 -9,4 C -9,6 C -9,2 C 53 % 1022 hPa 0,0 l/m 4,3 m/s (3 Bft) O22.5 100 0 min 0 lux -17,2 C -18,6 C
06.01.2009 07:02 -9,5 C -9,6 C -9,2 C 52 % 1022 hPa 0,0 l/m 5,3 m/s (3 Bft) O22.5 90 0 min 0 lux -17,5 C -21,3 C
06.01.2009 07:07 -9,3 C -9,5 C -9,2 C 52 % 1022 hPa 0,0 l/m 8,2 m/s (5 Bft) O22.5 95 0 min 0 lux -17,3 C -26,2 C
06.01.2009 07:12 -9,3 C -9,5 C -9,2 C 52 % 1022 hPa 0,0 l/m 8,2 m/s (5 Bft) O22.5 95 0 min 0 lux -17,3 C -26,2 C
06.01.2009 07:17 -9,4 C -9,5 C -9,2 C 52 % 1022 hPa 0,0 l/m 6,2 m/s (4 Bft) O-NO45 60 0 min 0 lux -17,4 C -23,1 C
06.01.2009 07:22 -9,5 C -9,5 C -9,2 C 52 % 1022 hPa 0,0 l/m 5,0 m/s (3 Bft) O-NO45 65 0 min 0 lux -17,5 C -20,6 C
06.01.2009 07:27 -9,4 C -9,5 C -9,2 C 52 % 1022 hPa 0,0 l/m 4,7 m/s (3 Bft) O22.5 90 0 min 0 lux -17,4 C -19,8 C
06.01.2009 07:33 -9,5 C -9,6 C -9,2 C 53 % 1022 hPa 0,0 l/m 5,0 m/s (3 Bft) O22.5 95 0 min 0 lux -17,3 C -20,6 C
06.01.2009 07:38 -9,6 C -9,6 C -9,3 C 53 % 1023 hPa 0,0 l/m 4,6 m/s (3 Bft) O45 90 0 min 0 lux -17,4 C -19,8 C
06.01.2009 07:43 -9,6 C -9,6 C -9,3 C 54 % 1023 hPa 0,0 l/m 4,7 m/s (3 Bft) O-SO22.5 105 0 min 0 lux -17,1 C -20,0 C
06.01.2009 07:48 -9,5 C -9,7 C -9,3 C 53 % 1022 hPa 0,0 l/m 4,3 m/s (3 Bft) O-NO67.5 65 0 min 0 lux -17,3 C -18,8 C
06.01.2009 07:53 -9,6 C -9,7 C -9,3 C 54 % 1022 hPa 0,0 l/m 3,9 m/s (3 Bft) O45 95 0 min 0 lux -17,1 C -17,8 C
06.01.2009 07:58 -9,5 C -9,7 C -9,3 C 53 % 1022 hPa 0,0 l/m 5,3 m/s (3 Bft) O-SO22.5 105 0 min 0 lux -17,3 C -21,4 C
06.01.2009 08:03 -9,5 C -9,7 C -9,4 C 53 % 1023 hPa 0,0 l/m 5,7 m/s (4 Bft) O22.5 95 0 min 0 lux -17,3 C -22,2 C
06.01.2009 08:08 -9,4 C -9,7 C -9,4 C 54 % 1023 hPa 0,0 l/m 4,2 m/s (3 Bft) O45 100 0 min 78 lux -16,9 C -18,4 C
06.01.2009 08:13 -9,4 C -9,7 C -9,4 C 53 % 1023 hPa 0,0 l/m 6,1 m/s (4 Bft) O45 85 0 min 144 lux -17,2 C -23,0 C
06.01.2009 08:18 -9,4 C -9,7 C -9,4 C 54 % 1023 hPa 0,0 l/m 5,2 m/s (3 Bft) O67.5 80 0 min 251 lux -16,9 C -21,0 C
06.01.2009 08:23 -9,4 C -9,7 C -9,3 C 53 % 1023 hPa 0,0 l/m 5,5 m/s (3 Bft) O22.5 100 0 min 397 lux -17,2 C -21,7 C
06.01.2009 08:28 -9,5 C -9,7 C -9,3 C 53 % 1023 hPa 0,0 l/m 5,0 m/s (3 Bft) O-NO67.5 60 0 min 595 lux -17,3 C -20,7 C
06.01.2009 08:33 -9,3 C -9,6 C -9,3 C 53 % 1023 hPa 0,0 l/m 5,0 m/s (3 Bft) O-NO67.5 60 0 min 871 lux -17,1 C -20,5 C
06.01.2009 08:38 -9,2 C -9,6 C -9,3 C 53 % 1023 hPa 0,0 l/m 7,0 m/s (4 Bft) O-NO45 70 0 min 1,02 klux -17,0 C -24,3 C
06.01.2009 08:43 -9,3 C -9,6 C -9,3 C 53 % 1023 hPa 0,0 l/m 4,6 m/s (3 Bft) O67.5 90 0 min 1,22 klux -17,1 C -19,4 C
06.01.2009 08:48 -9,4 C -9,6 C -9,3 C 53 % 1023 hPa 0,0 l/m 4,9 m/s (3 Bft) O22.5 100 0 min 1,48 klux -17,2 C -20,2 C
06.01.2009 08:53 -9,3 C -9,6 C -9,3 C 53 % 1023 hPa 0,0 l/m 6,1 m/s (4 Bft) O22.5 100 0 min 1,90 klux -17,1 C -22,7 C
06.01.2009 08:57 -9,3 C -9,5 C -9,3 C 53 % 1023 hPa 0,0 l/m 6,0 m/s (4 Bft) O22.5 80 0 min 2,44 klux -17,1 C -22,6 C
06.01.2009 09:02 -9,3 C -9,5 C -9,2 C 54 % 1023 hPa 0,0 l/m 4,8 m/s (3 Bft) O45 90 0 min 3,00 klux -16,8 C -19,9 C
06.01.2009 09:07 -9,2 C -9,4 C -9,2 C 53 % 1023 hPa 0,0 l/m 5,6 m/s (4 Bft) O22.5 100 0 min 3,89 klux -17,0 C -21,5 C
06.01.2009 09:12 -9,2 C -9,4 C -9,1 C 54 % 1023 hPa 0,0 l/m 5,0 m/s (3 Bft) O22.5 90 5 min 7,66 klux -16,8 C -20,3 C
06.01.2009 09:17 -9,1 C -9,4 C -9,0 C 53 % 1023 hPa 0,0 l/m 5,1 m/s (3 Bft) O-NO45 75 5 min 11,1 klux -16,9 C -20,5 C
06.01.2009 09:22 -8,9 C -9,3 C -9,0 C 53 % 1023 hPa 0,0 l/m 5,3 m/s (3 Bft) O45 80 5 min 13,8 klux -16,7 C -20,5 C
06.01.2009 09:27 -8,7 C -9,2 C -8,9 C 52 % 1023 hPa 0,0 l/m 4,5 m/s (3 Bft) O45 90 5 min 15,4 klux -16,7 C -18,5 C
06.01.2009 09:32 -8,5 C -9,2 C -8,9 C 51 % 1023 hPa 0,0 l/m 3,6 m/s (3 Bft) O45 90 5 min 16,2 klux -16,8 C -15,6 C
06.01.2009 09:37 -8,4 C -9,0 C -8,8 C 50 % 1023 hPa 0,0 l/m 5,4 m/s (3 Bft) O22.5 95 5 min 18,2 klux -16,9 C -20,2 C
06.01.2009 09:42 -8,3 C -8,9 C -8,8 C 49 % 1023 hPa 0,0 l/m 4,1 m/s (3 Bft) O67.5 80 5 min 19,1 klux -17,1 C -16,7 C
06.01.2009 09:47 -8,1 C -8,8 C -8,7 C 48 % 1023 hPa 0,0 l/m 4,3 m/s (3 Bft) O45 90 5 min 19,9 klux -17,1 C -17,0 C
06.01.2009 09:52 -8,1 C -8,8 C -8,7 C 48 % 1023 hPa 0,0 l/m 3,6 m/s (3 Bft) O45 90 5 min 20,0 klux -17,1 C -15,0 C
06.01.2009 09:57 -8,0 C -8,7 C -8,7 C 49 % 1023 hPa 0,0 l/m 4,6 m/s (3 Bft) O67.5 90 5 min 21,6 klux -16,8 C -17,8 C
06.01.2009 10:02 -8,0 C -8,7 C -8,6 C 49 % 1023 hPa 0,0 l/m 2,3 m/s (2 Bft) S-SW67.5 195 5 min 22,5 klux -16,8 C -10,2 C
06.01.2009 10:07 -7,9 C -8,6 C -8,5 C 47 % 1023 hPa 0,0 l/m 4,4 m/s (3 Bft) O67.5 80 5 min 23,6 klux -17,2 C -17,3 C
06.01.2009 10:13 -7,8 C -8,5 C -8,5 C 47 % 1023 hPa 0,0 l/m 3,2 m/s (2 Bft) O-SO22.5 105 6 min 26,4 klux -17,1 C -13,6 C
06.01.2009 10:18 -7,7 C -8,4 C -8,5 C 48 % 1023 hPa 0,0 l/m 3,0 m/s (2 Bft) O45 100 5 min 27,9 klux -16,8 C -12,7 C
06.01.2009 10:22 -7,7 C -8,4 C -8,4 C 46 % 1023 hPa 0,0 l/m 4,0 m/s (3 Bft) O-SO22.5 110 4 min 28,7 klux -17,3 C -15,8 C
06.01.2009 10:27 -7,5 C -8,2 C -8,4 C 47 % 1023 hPa 0,0 l/m 5,8 m/s (4 Bft) O-SO45 105 5 min 29,7 klux -16,8 C -19,9 C
06.01.2009 10:32 -7,5 C -8,1 C -8,3 C 47 % 1023 hPa 0,0 l/m 4,0 m/s (3 Bft) O22.5 100 5 min 30,7 klux -16,8 C -15,7 C
06.01.2009 10:37 -7,3 C -8,1 C -8,2 C 46 % 1023 hPa 0,0 l/m 3,4 m/s (3 Bft) O45 95 5 min 31,5 klux -16,9 C -13,8 C
06.01.2009 10:42 -7,2 C -8,0 C -8,1 C 46 % 1023 hPa 0,0 l/m 4,9 m/s (3 Bft) O45 80 5 min 32,8 klux -16,8 C -17,6 C
06.01.2009 10:47 -7,2 C -7,9 C -8,0 C 46 % 1023 hPa 0,0 l/m 3,3 m/s (2 Bft) O-NO45 75 5 min 33,8 klux -16,8 C -13,1 C
06.01.2009 10:52 -7,1 C -7,8 C -8,0 C 44 % 1023 hPa 0,0 l/m 6,4 m/s (4 Bft) O45 85 5 min 34,2 klux -17,2 C -20,4 C
06.01.2009 10:57 -7,1 C -7,8 C -7,9 C 44 % 1023 hPa 0,0 l/m 6,7 m/s (4 Bft) O22.5 100 5 min 35,2 klux -17,2 C -20,9 C
06.01.2009 11:03 -7,1 C -7,6 C -7,8 C 44 % 1023 hPa 0,0 l/m 6,4 m/s (4 Bft) O45 85 6 min 36,2 klux -17,2 C -20,5 C
06.01.2009 11:08 -7,0 C -7,5 C -7,8 C 42 % 1023 hPa 0,0 l/m 8,6 m/s (5 Bft) O45 90 5 min 36,5 klux -17,7 C -23,6 C
06.01.2009 11:12 -6,9 C -7,5 C -7,6 C 42 % 1023 hPa 0,0 l/m 7,5 m/s (4 Bft) O45 80 4 min 37,2 klux -17,6 C -22,0 C
06.01.2009 11:17 -6,9 C -7,4 C -7,5 C 43 % 1023 hPa 0,0 l/m 6,5 m/s (4 Bft) O-SO45 105 5 min 37,7 klux -17,3 C -20,4 C
06.01.2009 11:22 -6,8 C -7,3 C -7,2 C 43 % 1023 hPa 0,0 l/m 5,6 m/s (4 Bft) O45 95 5 min 39,6 klux -17,2 C -18,4 C
06.01.2009 11:27 -6,7 C -7,2 C -7,2 C 41 % 1023 hPa 0,0 l/m 6,9 m/s (4 Bft) O45 90 5 min 39,5 klux -17,7 C -20,8 C
06.01.2009 11:32 -6,6 C -7,2 C -7,0 C 41 % 1023 hPa 0,0 l/m 7,3 m/s (4 Bft) O45 90 5 min 39,5 klux -17,6 C -21,2 C
06.01.2009 11:37 -6,6 C -7,1 C -6,7 C 41 % 1023 hPa 0,0 l/m 6,8 m/s (4 Bft) O45 100 5 min 39,5 klux -17,6 C -20,3 C
06.01.2009 11:42 -6,5 C -7,0 C -6,6 C 41 % 1022 hPa 0,0 l/m 7,1 m/s (4 Bft) O-SO22.5 105 5 min 40,3 klux -17,5 C -20,7 C
06.01.2009 11:47 -6,3 C -7,0 C -6,4 C 41 % 1022 hPa 0,0 l/m 6,3 m/s (4 Bft) O22.5 100 5 min 40,3 klux -17,3 C -19,1 C
06.01.2009 11:53 -6,4 C -6,9 C -6,4 C 40 % 1023 hPa 0,0 l/m 8,0 m/s (5 Bft) O-SO22.5 110 6 min 41,1 klux -17,7 C -22,0 C
06.01.2009 11:58 -6,3 C -6,8 C -5,8 C 41 % 1023 hPa 0,0 l/m 6,7 m/s (4 Bft) O-NO67.5 65 5 min 41,3 klux -17,3 C -19,8 C
06.01.2009 12:02 -6,1 C -6,7 C -5,7 C 41 % 1022 hPa 0,0 l/m 4,5 m/s (3 Bft) O-NO22.5 65 4 min 41,2 klux -17,2 C -15,1 C
06.01.2009 12:07 -6,1 C -6,7 C -5,6 C 39 % 1022 hPa 0,0 l/m 5,1 m/s (3 Bft) O-NO45 75 5 min 41,3 klux -17,8 C -16,6 C
06.01.2009 12:12 -6,0 C -6,6 C -5,5 C 38 % 1022 hPa 0,0 l/m 6,3 m/s (4 Bft) O22.5 90 5 min 41,2 klux -18,0 C -18,7 C
06.01.2009 12:17 -6,0 C -6,5 C -5,4 C 38 % 1022 hPa 0,0 l/m 6,3 m/s (4 Bft) O-NO67.5 75 5 min 40,8 klux -18,0 C -18,7 C
06.01.2009 12:22 -5,9 C -6,4 C -5,5 C 39 % 1022 hPa 0,0 l/m 8,2 m/s (5 Bft) O45 95 5 min 41,1 klux -17,6 C -21,5 C
06.01.2009 12:27 -5,7 C -6,3 C -5,3 C 38 % 1022 hPa 0,0 l/m 6,9 m/s (4 Bft) O45 85 5 min 42,0 klux -17,7 C -19,4 C
06.01.2009 12:32 -5,6 C -6,2 C -5,2 C 38 % 1022 hPa 0,0 l/m 6,6 m/s (4 Bft) O45 80 5 min 41,6 klux -17,6 C -18,8 C
06.01.2009 12:37 -5,7 C -6,2 C -5,4 C 37 % 1022 hPa 0,0 l/m 5,4 m/s (3 Bft) O-SO22.5 105 5 min 41,5 klux -18,0 C -16,7 C
06.01.2009 12:43 -5,6 C -6,1 C -5,4 C 37 % 1022 hPa 0,0 l/m 6,3 m/s (4 Bft) O22.5 100 6 min 42,0 klux -17,9 C -18,2 C
06.01.2009 12:48 -5,5 C -6,0 C -5,2 C 39 % 1022 hPa 0,0 l/m 6,1 m/s (4 Bft) O45 80 5 min 42,8 klux -17,2 C -17,8 C
06.01.2009 12:52 -5,5 C -6,0 C -5,5 C 38 % 1022 hPa 0,0 l/m 7,1 m/s (4 Bft) O45 95 4 min 43,3 klux -17,5 C -19,4 C
06.01.2009 12:57 -5,4 C -5,9 C -5,4 C 38 % 1022 hPa 0,0 l/m 7,2 m/s (4 Bft) O45 95 5 min 44,0 klux -17,4 C -19,4 C
06.01.2009 13:02 -5,5 C -5,8 C -5,7 C 37 % 1022 hPa 0,0 l/m 7,4 m/s (4 Bft) O45 90 5 min 43,8 klux -17,8 C -19,8 C
06.01.2009 13:07 -5,4 C -5,8 C -5,8 C 37 % 1022 hPa 0,0 l/m 7,0 m/s (4 Bft) O45 95 5 min 43,8 klux -17,7 C -19,1 C
06.01.2009 13:12 -5,4 C -5,7 C -5,8 C 37 % 1022 hPa 0,0 l/m 7,8 m/s (4 Bft) O-NO67.5 60 5 min 43,5 klux -17,7 C -20,2 C
06.01.2009 13:17 -5,3 C -5,7 C -5,8 C 36 % 1022 hPa 0,0 l/m 6,1 m/s (4 Bft) O22.5 90 5 min 43,2 klux -18,0 C -17,4 C
06.01.2009 13:22 -5,4 C -5,7 C -5,9 C 36 % 1022 hPa 0,0 l/m 4,8 m/s (3 Bft) O-SO22.5 105 5 min 42,8 klux -18,1 C -14,9 C
06.01.2009 13:28 -5,1 C -5,6 C -6,0 C 38 % 1022 hPa 0,0 l/m 6,0 m/s (4 Bft) O22.5 100 6 min 42,4 klux -17,2 C -17,1 C
06.01.2009 13:33 -5,0 C -5,6 C -5,8 C 37 % 1022 hPa 0,0 l/m 4,9 m/s (3 Bft) NO45 35 5 min 41,9 klux -17,4 C -14,8 C
06.01.2009 13:37 -4,9 C -5,6 C -5,9 C 37 % 1022 hPa 0,0 l/m 5,1 m/s (3 Bft) O67.5 80 4 min 41,3 klux -17,3 C -15,0 C
06.01.2009 13:42 -4,8 C -5,5 C -6,0 C 37 % 1022 hPa 0,0 l/m 4,7 m/s (3 Bft) O22.5 95 5 min 40,7 klux -17,2 C -14,1 C
06.01.2009 13:47 -4,8 C -5,5 C -6,0 C 35 % 1022 hPa 0,0 l/m 5,2 m/s (3 Bft) O-NO67.5 65 5 min 40,3 klux -17,9 C -15,2 C
06.01.2009 13:52 -4,9 C -5,4 C -6,0 C 36 % 1021 hPa 0,0 l/m 5,4 m/s (3 Bft) O-NO45 60 5 min 39,6 klux -17,6 C -15,6 C
06.01.2009 13:57 -4,9 C -5,4 C -6,0 C 37 % 1021 hPa 0,0 l/m 4,2 m/s (3 Bft) NO67.5 40 5 min 39,3 klux -17,3 C -12,9 C
06.01.2009 14:02 -4,9 C -5,4 C -6,0 C 35 % 1021 hPa 0,0 l/m 5,4 m/s (3 Bft) NO67.5 55 5 min 38,4 klux -17,9 C -15,7 C
06.01.2009 14:07 -4,9 C -5,4 C -6,1 C 36 % 1021 hPa 0,0 l/m 4,7 m/s (3 Bft) O-NO45 65 5 min 37,4 klux -17,6 C -14,1 C
06.01.2009 14:12 -5,0 C -5,4 C -6,2 C 36 % 1021 hPa 0,0 l/m 4,2 m/s (3 Bft) N67.5 10 5 min 36,7 klux -17,7 C -13,2 C
06.01.2009 14:18 -5,0 C -5,4 C -6,2 C 36 % 1021 hPa 0,0 l/m 3,7 m/s (3 Bft) O-NO45 60 6 min 35,9 klux -17,7 C -11,8 C
06.01.2009 14:23 -5,0 C -5,4 C -6,2 C 38 % 1021 hPa 0,0 l/m 2,6 m/s (2 Bft) NO45 35 5 min 34,7 klux -17,1 C -8,2 C
06.01.2009 14:27 -5,0 C -5,4 C -6,3 C 37 % 1021 hPa 0,0 l/m 3,3 m/s (2 Bft) N45 355 4 min 33,8 klux -17,4 C -10,7 C
06.01.2009 14:32 -5,0 C -5,4 C -6,4 C 37 % 1021 hPa 0,0 l/m 3,1 m/s (2 Bft) N-NO22.5 20 5 min 33,6 klux -17,4 C -10,1 C
06.01.2009 14:37 -5,0 C -5,3 C -6,3 C 37 % 1021 hPa 0,0 l/m 3,6 m/s (3 Bft) NO67.5 45 5 min 31,6 klux -17,4 C -11,4 C
06.01.2009 14:42 -5,0 C -5,4 C -6,4 C 38 % 1021 hPa 0,0 l/m 2,9 m/s (2 Bft) N22.5 5 5 min 30,3 klux -17,1 C -9,3 C
06.01.2009 14:47 -5,0 C -5,4 C -6,5 C 37 % 1021 hPa 0,0 l/m 3,2 m/s (2 Bft) NO67.5 35 5 min 29,6 klux -17,4 C -10,4 C
06.01.2009 14:52 -5,0 C -5,4 C -6,6 C 37 % 1021 hPa 0,0 l/m 2,7 m/s (2 Bft) N22.5 10 5 min 28,4 klux -17,4 C -8,6 C
06.01.2009 14:57 -5,1 C -5,4 C -6,6 C 36 % 1021 hPa 0,0 l/m 4,6 m/s (3 Bft) N-NO67.5 15 5 min 26,5 klux -17,8 C -14,2 C
06.01.2009 15:02 -5,1 C -5,4 C -6,6 C 36 % 1021 hPa 0,0 l/m 3,4 m/s (3 Bft) N-NO45 25 5 min 24,1 klux -17,8 C -11,2 C
06.01.2009 15:08 -5,1 C -5,5 C -6,7 C 36 % 1021 hPa 0,0 l/m 2,4 m/s (2 Bft) N-NO22.5 20 6 min 23,5 klux -17,8 C -7,6 C
06.01.2009 15:13 -5,1 C -5,5 C -6,7 C 36 % 1021 hPa 0,0 l/m 4,6 m/s (3 Bft) NO45 50 5 min 21,5 klux -17,8 C -14,2 C
06.01.2009 15:17 -5,3 C -5,5 C -6,7 C 36 % 1021 hPa 0,0 l/m 1,8 m/s (2 Bft) NO45 45 4 min 20,5 klux -18,0 C -5,4 C
06.01.2009 15:22 -5,3 C -5,6 C -6,8 C 37 % 1021 hPa 0,0 l/m 2,8 m/s (2 Bft) N22.5 5 5 min 19,4 klux -17,7 C -9,2 C
06.01.2009 15:27 -5,4 C -5,6 C -6,8 C 37 % 1021 hPa 0,0 l/m 2,3 m/s (2 Bft) N 5 5 min 18,1 klux -17,7 C -7,4 C
06.01.2009 15:32 -5,4 C -5,6 C -6,8 C 38 % 1021 hPa 0,0 l/m 4,2 m/s (3 Bft) O-NO67.5 60 5 min 16,4 klux -17,4 C -13,6 C
06.01.2009 15:37 -5,5 C -5,7 C -6,9 C 38 % 1021 hPa 0,0 l/m 4,6 m/s (3 Bft) O45 90 5 min 14,9 klux -17,5 C -14,7 C
06.01.2009 15:42 -5,5 C -5,8 C -6,8 C 38 % 1021 hPa 0,0 l/m 2,0 m/s (2 Bft) N67.5 5 5 min 13,9 klux -17,5 C -6,5 C
06.01.2009 15:47 -5,6 C -5,9 C -6,8 C 39 % 1021 hPa 0,0 l/m 2,7 m/s (2 Bft) NO67.5 35 5 min 12,0 klux -17,3 C -9,2 C
06.01.2009 15:52 -5,8 C -5,9 C -7,0 C 39 % 1021 hPa 0,0 l/m 3,3 m/s (2 Bft) O67.5 90 5 min 11,4 klux -17,5 C -11,7 C
06.01.2009 15:58 -5,9 C -6,0 C -7,1 C 40 % 1021 hPa 0,0 l/m 3,3 m/s (2 Bft) O45 90 6 min 9,8 klux -17,3 C -11,6 C
06.01.2009 16:03 -5,9 C -6,0 C -7,1 C 40 % 1021 hPa 0,0 l/m 3,1 m/s (2 Bft) O22.5 80 5 min 8,84 klux -17,3 C -10,9 C
06.01.2009 16:07 -6,1 C -6,1 C -7,1 C 40 % 1021 hPa 0,0 l/m 3,8 m/s (3 Bft) O22.5 85 4 min 8,04 klux -17,5 C -13,3 C
06.01.2009 16:12 -6,2 C -6,3 C -7,1 C 41 % 1021 hPa 0,0 l/m 2,4 m/s (2 Bft) O-SO22.5 110 5 min 6,45 klux -17,3 C -8,7 C
06.01.2009 16:17 -6,4 C -6,4 C -7,2 C 42 % 1021 hPa 0,0 l/m 2,4 m/s (2 Bft) O-SO22.5 115 5 min 4,93 klux -17,2 C -9,2 C
06.01.2009 16:22 -6,5 C -6,5 C -7,3 C 42 % 1021 hPa 0,0 l/m 3,9 m/s (3 Bft) O-SO22.5 110 5 min 3,56 klux -17,2 C -14,0 C
06.01.2009 16:27 -6,7 C -6,7 C -7,4 C 44 % 1021 hPa 0,0 l/m 2,9 m/s (2 Bft) O22.5 100 0 min 2,06 klux -16,9 C -11,3 C
06.01.2009 16:32 -6,9 C -6,8 C -7,4 C 44 % 1021 hPa 0,0 l/m 2,3 m/s (2 Bft) O-SO 115 0 min 1,29 klux -17,1 C -9,2 C
06.01.2009 16:37 -7,1 C -6,9 C -7,7 C 45 % 1021 hPa 0,0 l/m 1,5 m/s (1 Bft) O-SO 110 0 min 1,11 klux -17,0 C -7,1 C
06.01.2009 16:43 -7,5 C -7,0 C -7,8 C 46 % 1021 hPa 0,0 l/m 0,0 m/s (0 Bft) O-SO 110 0 min 792 lux -17,1 C -7,5 C
06.01.2009 16:48 -7,7 C -7,4 C -8,1 C 46 % 1021 hPa 0,0 l/m 0,1 m/s (0 Bft) O-SO 110 0 min 539 lux -17,3 C -7,7 C
06.01.2009 16:52 -8,2 C -7,5 C -8,5 C 47 % 1021 hPa 0,0 l/m 0,0 m/s (0 Bft) O-SO 110 0 min 344 lux -17,5 C -8,2 C
06.01.2009 16:57 -8,3 C -7,6 C -8,4 C 49 % 1021 hPa 0,0 l/m 1,9 m/s (2 Bft) O22.5 100 0 min 205 lux -17,1 C -9,1 C
06.01.2009 17:02 -8,5 C -7,9 C -8,4 C 48 % 1021 hPa 0,0 l/m 0,0 m/s (0 Bft) O 90 0 min 115 lux -17,5 C -8,5 C
06.01.2009 17:07 -8,7 C -8,1 C -8,6 C 49 % 1021 hPa 0,0 l/m 0,0 m/s (0 Bft) O 90 0 min 44 lux -17,4 C -8,7 C
06.01.2009 17:12 -9,0 C -8,3 C -8,7 C 50 % 1021 hPa 0,0 l/m 0,0 m/s (0 Bft) O 90 0 min 27 lux -17,5 C -9,0 C
06.01.2009 17:17 -9,1 C -8,5 C -8,8 C 51 % 1021 hPa 0,0 l/m 0,8 m/s (1 Bft) O 90 0 min 20 lux -17,3 C -9,1 C
06.01.2009 17:22 -9,2 C -8,6 C -8,7 C 52 % 1021 hPa 0,0 l/m 0,9 m/s (1 Bft) O 90 0 min 16 lux -17,2 C -9,2 C
06.01.2009 17:27 -9,3 C -8,6 C -9,0 C 52 % 1021 hPa 0,0 l/m 0,0 m/s (0 Bft) O 90 0 min 11 lux -17,3 C -9,3 C
06.01.2009 17:33 -9,4 C -8,8 C -9,0 C 52 % 1021 hPa 0,0 l/m 0,0 m/s (0 Bft) O 90 0 min 4 lux -17,4 C -9,4 C
06.01.2009 17:38 -9,5 C -8,9 C -9,1 C 51 % 1021 hPa 0,0 l/m 0,0 m/s (0 Bft) O 90 0 min 0 lux -17,7 C -9,5 C
06.01.2009 17:42 -9,5 C -9,0 C -9,4 C 52 % 1021 hPa 0,0 l/m 0,0 m/s (0 Bft) O 90 0 min 0 lux -17,5 C -9,5 C
06.01.2009 17:47 -9,8 C -9,1 C -9,4 C 54 % 1021 hPa 0,0 l/m 0,8 m/s (1 Bft) O 90 0 min 0 lux -17,3 C -9,8 C
06.01.2009 17:52 -9,9 C -9,3 C -9,5 C 54 % 1021 hPa 0,0 l/m 0,0 m/s (0 Bft) O 90 0 min 0 lux -17,4 C -9,9 C
06.01.2009 17:57 -10,2 C -9,5 C -9,5 C 54 % 1021 hPa 0,0 l/m 0,0 m/s (0 Bft) O 90 0 min 0 lux -17,7 C -10,2 C
06.01.2009 18:02 -10,2 C -9,5 C -9,3 C 57 % 1021 hPa 0,0 l/m 1,3 m/s (1 Bft) S45 180 0 min 0 lux -17,1 C -10,2 C
06.01.2009 18:07 -10,1 C -9,5 C -9,4 C 56 % 1021 hPa 0,0 l/m 2,0 m/s (2 Bft) S 190 0 min 0 lux -17,2 C -11,2 C
06.01.2009 18:12 -10,2 C -9,6 C -9,6 C 55 % 1021 hPa 0,0 l/m 0,0 m/s (0 Bft) S 190 0 min 0 lux -17,5 C -10,2 C
06.01.2009 18:17 -10,5 C -9,7 C -9,9 C 55 % 1021 hPa 0,0 l/m 0,0 m/s (0 Bft) S 190 0 min 0 lux -17,8 C -10,5 C
06.01.2009 18:23 -10,8 C -9,9 C -9,8 C 55 % 1021 hPa 0,0 l/m 0,0 m/s (0 Bft) S 190 0 min 0 lux -18,0 C -10,8 C
06.01.2009 18:27 -10,8 C -10,0 C -9,8 C 57 % 1021 hPa 0,0 l/m 0,9 m/s (1 Bft) S 190 0 min 0 lux -17,6 C -10,8 C
06.01.2009 18:32 -10,7 C -10,0 C -9,9 C 57 % 1021 hPa 0,0 l/m 0,1 m/s (0 Bft) S 190 0 min 0 lux -17,5 C -10,7 C
06.01.2009 18:37 -11,0 C -10,1 C -10,0 C 56 % 1021 hPa 0,0 l/m 0,0 m/s (0 Bft) S 190 0 min 0 lux -18,0 C -11,0 C
06.01.2009 18:42 -11,0 C -10,2 C -10,0 C 57 % 1021 hPa 0,0 l/m 0,0 m/s (0 Bft) S 190 0 min 0 lux -17,8 C -11,0 C
06.01.2009 18:47 -11,2 C -10,3 C -10,2 C 58 % 1021 hPa 0,0 l/m 0,0 m/s (0 Bft) S 190 0 min 0 lux -17,8 C -11,2 C
06.01.2009 18:52 -11,3 C -10,3 C -10,5 C 58 % 1021 hPa 0,0 l/m 1,4 m/s (1 Bft) O67.5 80 0 min 0 lux -17,9 C -11,3 C
06.01.2009 18:57 -11,4 C -10,6 C -10,3 C 58 % 1021 hPa 0,0 l/m 0,2 m/s (0 Bft) O-NO 60 0 min 0 lux -18,0 C -11,4 C
06.01.2009 19:02 -11,4 C -10,7 C -10,3 C 60 % 1021 hPa 0,0 l/m 0,1 m/s (0 Bft) O-NO 65 0 min 0 lux -17,6 C -11,4 C
06.01.2009 19:07 -11,3 C -10,7 C -10,2 C 60 % 1021 hPa 0,0 l/m 1,3 m/s (1 Bft) O-NO 65 0 min 0 lux -17,5 C -11,3 C
06.01.2009 19:12 -11,3 C -10,8 C -10,3 C 59 % 1021 hPa 0,0 l/m 0,0 m/s (0 Bft) O-NO 65 0 min 0 lux -17,7 C -11,3 C
06.01.2009 19:17 -11,4 C -10,8 C -10,4 C 59 % 1021 hPa 0,0 l/m 0,0 m/s (0 Bft) O-NO 65 0 min 0 lux -17,8 C -11,4 C
06.01.2009 19:22 -11,7 C -10,9 C -10,5 C 60 % 1021 hPa 0,0 l/m 0,0 m/s (0 Bft) O-NO 65 0 min 0 lux -17,9 C -11,7 C
06.01.2009 19:27 -11,9 C -10,9 C -10,7 C 60 % 1021 hPa 0,0 l/m 0,0 m/s (0 Bft) O-NO 65 0 min 0 lux -18,1 C -11,9 C
06.01.2009 19:32 -12,0 C -11,1 C -10,6 C 61 % 1021 hPa 0,0 l/m 0,0 m/s (0 Bft) O-NO 65 0 min 0 lux -18,0 C -12,0 C
06.01.2009 19:37 -12,0 C -11,2 C -10,6 C 60 % 1021 hPa 0,0 l/m 0,0 m/s (0 Bft) O-NO 65 0 min 0 lux -18,1 C -12,0 C
06.01.2009 19:42 -12,1 C -11,2 C -10,7 C 60 % 1021 hPa 0,0 l/m 0,0 m/s (0 Bft) O-NO 65 0 min 0 lux -18,2 C -12,1 C
06.01.2009 19:47 -12,3 C -11,4 C -10,8 C 60 % 1021 hPa 0,0 l/m 0,0 m/s (0 Bft) O-NO 65 0 min 0 lux -18,4 C -12,3 C
06.01.2009 19:52 -12,4 C -11,5 C -10,9 C 61 % 1021 hPa 0,0 l/m 0,0 m/s (0 Bft) O-NO 65 0 min 0 lux -18,3 C -12,4 C
06.01.2009 19:57 -12,5 C -11,5 C -10,9 C 62 % 1021 hPa 0,0 l/m 0,0 m/s (0 Bft) O-NO 65 0 min 0 lux -18,2 C -12,5 C
06.01.2009 20:02 -12,6 C -11,7 C -10,9 C 61 % 1021 hPa 0,0 l/m 0,0 m/s (0 Bft) O-NO 65 0 min 0 lux -18,5 C -12,6 C
06.01.2009 20:07 -12,8 C -11,8 C -10,9 C 62 % 1021 hPa 0,0 l/m 0,0 m/s (0 Bft) O-NO 65 0 min 0 lux -18,5 C -12,8 C
06.01.2009 20:12 -12,8 C -11,8 C -10,8 C 64 % 1021 hPa 0,0 l/m 1,0 m/s (1 Bft) O-NO 65 0 min 0 lux -18,2 C -12,8 C
06.01.2009 20:17 -12,6 C -11,8 C -10,8 C 65 % 1021 hPa 0,0 l/m 1,5 m/s (1 Bft) SW45 235 0 min 0 lux -17,8 C -12,6 C
06.01.2009 20:22 -12,6 C -12,0 C -11,1 C 65 % 1021 hPa 0,0 l/m 0,9 m/s (1 Bft) W 260 0 min 0 lux -17,8 C -12,6 C
06.01.2009 20:27 -12,8 C -12,0 C -11,3 C 63 % 1021 hPa 0,0 l/m 0,0 m/s (0 Bft) W 260 0 min 0 lux -18,3 C -12,8 C
06.01.2009 20:32 -12,8 C -12,1 C -11,3 C 64 % 1021 hPa 0,0 l/m 0,0 m/s (0 Bft) W-SW 255 0 min 0 lux -18,2 C -12,8 C
06.01.2009 20:37 -12,8 C -12,1 C -11,5 C 64 % 1021 hPa 0,0 l/m 0,3 m/s (0 Bft) W-SW 255 0 min 0 lux -18,2 C -12,8 C
06.01.2009 20:42 -12,8 C -12,2 C -11,3 C 64 % 1021 hPa 0,0 l/m 0,0 m/s (0 Bft) W-SW 255 0 min 0 lux -18,2 C -12,8 C
06.01.2009 20:47 -12,7 C -12,1 C -11,4 C 64 % 1021 hPa 0,0 l/m 0,9 m/s (1 Bft) W-SW 255 0 min 0 lux -18,1 C -12,7 C
06.01.2009 20:52 -12,8 C -12,2 C -11,4 C 64 % 1021 hPa 0,0 l/m 0,0 m/s (0 Bft) W-SW 255 0 min 0 lux -18,2 C -12,8 C
06.01.2009 20:57 -12,8 C -12,3 C -11,4 C 64 % 1021 hPa 0,0 l/m 0,0 m/s (0 Bft) W-SW 255 0 min 0 lux -18,2 C -12,8 C
06.01.2009 21:02 -13,2 C -12,4 C -11,4 C 64 % 1021 hPa 0,0 l/m 0,0 m/s (0 Bft) W-SW 255 0 min 0 lux -18,5 C -13,2 C
06.01.2009 21:07 -13,2 C -12,4 C -11,7 C 64 % 1021 hPa 0,0 l/m 0,0 m/s (0 Bft) W-SW 255 0 min 0 lux -18,5 C -13,2 C
06.01.2009 21:12 -13,4 C -12,5 C -11,9 C 64 % 1021 hPa 0,0 l/m 0,0 m/s (0 Bft) W-SW 255 0 min 0 lux -18,7 C -13,4 C
06.01.2009 21:17 -13,6 C -12,6 C -11,9 C 65 % 1021 hPa 0,0 l/m 0,4 m/s (1 Bft) W-SW 255 0 min 0 lux -18,7 C -13,6 C
06.01.2009 21:22 -13,6 C -12,7 C -12,0 C 65 % 1021 hPa 0,0 l/m 0,6 m/s (1 Bft) W-SW 255 0 min 0 lux -18,7 C -13,6 C
06.01.2009 21:27 -13,6 C -12,7 C -12,0 C 65 % 1021 hPa 0,0 l/m 0,0 m/s (0 Bft) W-SW 255 0 min 0 lux -18,7 C -13,6 C
06.01.2009 21:32 -13,7 C -12,9 C -11,8 C 65 % 1021 hPa 0,0 l/m 0,0 m/s (0 Bft) W-SW 255 0 min 0 lux -18,8 C -13,7 C
06.01.2009 21:37 -13,8 C -13,0 C -12,0 C 65 % 1021 hPa 0,0 l/m 0,0 m/s (0 Bft) W-SW 255 0 min 0 lux -18,9 C -13,8 C
06.01.2009 21:42 -13,9 C -13,0 C -12,1 C 65 % 1021 hPa 0,0 l/m 0,0 m/s (0 Bft) W-SW 255 0 min 0 lux -19,0 C -13,9 C
06.01.2009 21:47 -14,0 C -13,1 C -11,9 C 66 % 1021 hPa 0,0 l/m 0,0 m/s (0 Bft) W-SW 255 0 min 0 lux -18,9 C -14,0 C
06.01.2009 21:52 -14,0 C -13,1 C -11,9 C 67 % 1021 hPa 0,0 l/m 0,0 m/s (0 Bft) W-SW 255 0 min 0 lux -18,8 C -14,0 C
06.01.2009 21:57 -14,0 C -13,1 C -12,0 C 67 % 1021 hPa 0,0 l/m 0,0 m/s (0 Bft) W-SW 255 0 min 0 lux -18,8 C -14,0 C
06.01.2009 22:02 -14,2 C -13,1 C -12,0 C 69 % 1021 hPa 0,0 l/m 0,0 m/s (0 Bft) W-SW 255 0 min 0 lux -18,6 C -14,2 C
06.01.2009 22:07 -14,3 C -13,4 C -12,1 C 68 % 1021 hPa 0,0 l/m 0,0 m/s (0 Bft) W-SW 255 0 min 0 lux -18,9 C -14,3 C
06.01.2009 22:12 -14,3 C -13,4 C -12,1 C 68 % 1021 hPa 0,0 l/m 0,3 m/s (1 Bft) W-SW 255 0 min 0 lux -18,9 C -14,3 C
06.01.2009 22:17 -14,3 C -13,5 C -12,1 C 68 % 1021 hPa 0,0 l/m 0,0 m/s (0 Bft) W-SW 255 0 min 0 lux -18,9 C -14,3 C
06.01.2009 22:22 -14,4 C -13,5 C -12,3 C 68 % 1021 hPa 0,0 l/m 0,0 m/s (0 Bft) W-SW 255 0 min 0 lux -19,0 C -14,4 C
06.01.2009 22:27 -14,5 C -13,6 C -12,3 C 69 % 1021 hPa 0,0 l/m 0,0 m/s (0 Bft) W-SW 255 0 min 0 lux -18,9 C -14,5 C
06.01.2009 22:32 -14,5 C -13,7 C -12,3 C 69 % 1021 hPa 0,0 l/m 0,0 m/s (0 Bft) W-SW 255 0 min 0 lux -18,9 C -14,5 C
06.01.2009 22:37 -14,7 C -13,7 C -12,4 C 68 % 1021 hPa 0,0 l/m 0,8 m/s (1 Bft) W-SW 255 0 min 0 lux -19,3 C -14,7 C
06.01.2009 22:42 -14,7 C -13,8 C -12,4 C 68 % 1021 hPa 0,0 l/m 0,8 m/s (1 Bft) W-SW 255 0 min 0 lux -19,3 C -14,7 C
06.01.2009 22:47 -14,7 C -13,8 C -12,5 C 68 % 1021 hPa 0,0 l/m 0,0 m/s (0 Bft) W-SW 255 0 min 0 lux -19,3 C -14,7 C
06.01.2009 22:51 -14,7 C -13,9 C -12,4 C 70 % 1021 hPa 0,0 l/m 1,0 m/s (1 Bft) W-SW 255 0 min 0 lux -18,9 C -14,7 C
06.01.2009 22:57 -14,8 C -13,9 C -12,6 C 69 % 1021 hPa 0,0 l/m 0,0 m/s (0 Bft) W-SW 255 0 min 0 lux -19,2 C -14,8 C
06.01.2009 23:02 -14,9 C -14,0 C -12,7 C 70 % 1021 hPa 0,0 l/m 1,2 m/s (1 Bft) W-SW 255 0 min 0 lux -19,1 C -14,9 C
06.01.2009 23:07 -14,9 C -14,2 C -12,5 C 71 % 1021 hPa 0,0 l/m 1,2 m/s (1 Bft) W-SW 255 0 min 0 lux -19,0 C -14,9 C
06.01.2009 23:12 -14,8 C -14,1 C -12,6 C 71 % 1021 hPa 0,0 l/m 0,0 m/s (0 Bft) W-SW 255 0 min 0 lux -18,9 C -14,8 C
06.01.2009 23:17 -14,8 C -14,2 C -12,7 C 70 % 1021 hPa 0,0 l/m 1,3 m/s (1 Bft) W-SW 255 0 min 0 lux -19,0 C -14,8 C
06.01.2009 23:22 -14,8 C -14,2 C -12,7 C 70 % 1021 hPa 0,0 l/m 1,0 m/s (1 Bft) W-SW 255 0 min 0 lux -19,0 C -14,8 C
06.01.2009 23:27 -14,8 C -14,2 C -12,6 C 70 % 1021 hPa 0,0 l/m 0,7 m/s (1 Bft) W-SW 255 0 min 0 lux -19,0 C -14,8 C
06.01.2009 23:32 -15,0 C -14,3 C -12,7 C 70 % 1021 hPa 0,0 l/m 0,0 m/s (0 Bft) W-SW 255 0 min 0 lux -19,2 C -15,0 C
06.01.2009 23:37 -15,1 C -14,3 C -12,8 C 70 % 1021 hPa 0,0 l/m 0,0 m/s (0 Bft) W-SW 255 0 min 0 lux -19,3 C -15,1 C
06.01.2009 23:42 -15,2 C -14,5 C -12,8 C 70 % 1021 hPa 0,0 l/m 0,0 m/s (0 Bft) W-SW 255 0 min 0 lux -19,4 C -15,2 C
06.01.2009 23:47 -15,2 C -14,5 C -12,7 C 70 % 1021 hPa 0,0 l/m 0,0 m/s (0 Bft) W-SW 255 0 min 0 lux -19,4 C -15,2 C
06.01.2009 23:52 -15,3 C -14,6 C -12,8 C 70 % 1021 hPa 0,0 l/m 0,0 m/s (0 Bft) W-SW 255 0 min 0 lux -19,5 C -15,3 C
06.01.2009 23:57 -15,3 C -14,6 C -12,9 C 70 % 1021 hPa 0,0 l/m 1,0 m/s (1 Bft) W-SW 255 0 min 0 lux -19,5 C -15,3 C
_ Min-Zeit 23:52 23:52 23:57 13:47 13:52 - 16:52 - - - - 23:52 07:07
Minimum _ -15,3 C -14,6 C -12,9 C 35 % 1021 hPa - 0,0 m/s (0 Bft) - - - - -19,5 C -26,2 C
_ Max-Zeit 13:42 14:37 12:32 00:03 02:13 00:03 11:08 - - 10:13 12:57 00:03 15:17
Maximum _ -4,8 C -5,3 C -5,2 C 72 % 1023 hPa 0,0 l/m 8,6 m/s
O (5 Bft)
- - 6 min 44,0 klux -12,0 C -5,4 C
Durchschnitt _ -9,2 C -9,1 C -8,8 C 53 % 1022 hPa #0,0 l/m 3,1 m/s (2 Bft) O - #7:15 h 9,2 klux -17,2 C -15,0 C